TimeCDT,TemperatureF,Dew PointF,Humidity,Sea Level PressureIn,VisibilityMPH,Wind Direction,Wind SpeedMPH,Gust SpeedMPH,PrecipitationIn,Events,Conditions,WindDirDegrees,DateUTC
12:53 AM,54.0,50.0,86,30.07,10.0,Calm,Calm,-,N/A,,Clear,0,2013-04-02 05:53:00
1:53 AM,53.1,50.0,89,30.07,10.0,NW,3.5,-,N/A,,Clear,320,2013-04-02 06:53:00
2:53 AM,54.0,48.9,83,30.06,10.0,NNW,4.6,-,N/A,,Clear,340,2013-04-02 07:53:00
3:53 AM,53.1,46.9,80,30.06,10.0,NNW,5.8,-,N/A,,Clear,340,2013-04-02 08:53:00
4:53 AM,52.0,45.0,77,30.08,10.0,NNE,5.8,-,N/A,,Clear,20,2013-04-02 09:53:00
5:53 AM,51.1,44.1,77,30.11,10.0,NNE,3.5,-,N/A,,Clear,30,2013-04-02 10:53:00
6:53 AM,48.9,45.0,86,30.14,10.0,Calm,Calm,-,N/A,,Clear,0,2013-04-02 11:53:00
7:53 AM,57.0,46.0,67,30.16,10.0,NE,5.8,-,N/A,,Clear,50,2013-04-02 12:53:00
8:53 AM,62.1,45.0,53,30.17,10.0,ENE,6.9,-,N/A,,Clear,60,2013-04-02 13:53:00
9:53 AM,66.9,44.1,44,30.18,10.0,East,8.1,-,N/A,,Clear,80,2013-04-02 14:53:00
10:53 AM,71.1,44.1,38,30.18,10.0,ENE,8.1,-,N/A,,Clear,60,2013-04-02 15:53:00
11:53 AM,72.0,44.1,37,30.16,10.0,Variable,5.8,-,N/A,,Clear,0,2013-04-02 16:53:00
12:53 PM,73.9,44.1,34,30.14,9.0,Calm,Calm,-,N/A,,Clear,0,2013-04-02 17:53:00
1:53 PM,77.0,42.1,29,30.11,10.0,Calm,Calm,-,N/A,,Clear,0,2013-04-02 18:53:00
2:53 PM,75.9,42.1,30,30.09,10.0,Variable,4.6,-,N/A,,Clear,0,2013-04-02 19:53:00
3:53 PM,78.1,43.0,29,30.07,10.0,South,8.1,-,N/A,,Clear,170,2013-04-02 20:53:00
4:53 PM,77.0,41.0,28,30.07,10.0,Variable,3.5,-,N/A,,Clear,0,2013-04-02 21:53:00
5:53 PM,75.0,42.1,31,30.06,10.0,ESE,3.5,-,N/A,,Clear,120,2013-04-02 22:53:00
6:53 PM,71.1,48.0,44,30.06,10.0,Calm,Calm,-,N/A,,Clear,0,2013-04-02 23:53:00
7:53 PM,64.9,51.1,61,30.08,10.0,Calm,Calm,-,N/A,,Clear,0,2013-04-03 00:53:00
8:53 PM,62.1,51.1,67,30.10,10.0,Calm,Calm,-,N/A,,Clear,0,2013-04-03 01:53:00
9:53 PM,63.0,48.0,58,30.11,10.0,SSW,5.8,-,N/A,,Clear,200,2013-04-03 02:53:00
10:53 PM,62.1,48.9,62,30.10,10.0,Calm,Calm,-,N/A,,Clear,0,2013-04-03 03:53:00
11:53 PM,61.0,46.9,60,30.09,10.0,Calm,Calm,-,N/A,,Clear,0,2013-04-03 04:53:00